Location: Champs
(48.8539°N, 2.6040°E)
Time: 17:51:21
(UTC+00:00)

DMSP 5D-2 F13 DEB - Pass Details

Date: 18 August 2022
Orbit: 710 x 775 km, 98.8° (Epoch: 23 September)

Event Time Altitude Azimuth Distance (km) Brightness Sun altitude
Exits shadow 00:32:14 19° 280° (W) 1,811 ? -27.4°
Drops below altitude 10° 00:35:11 10° 315° (NW) 2,340 ? -27.3°
Sets 00:38:13 0° 333° (NNW) 3,276 ? -27.2°
